很BT电影联盟,BT联盟,BTchina联盟,BT中国联盟,BT大联盟,BT影视联盟,BT下载联盟

高清下载论坛 | 爱上高清网 | 资源搜索 | 发布资源 | 加入收藏

新银河娱乐城

很BT发布页,资源发布帐号申请请联系: 190939100@qq.com,QQ:190939100。注明:发布小组 (广告业务 注明:广告)

种子下载:在资源页面的左上角<资源介绍的左边>"点击此处下载种子" 右键“目标另存为”即可下载种子

资源分享 RSS

发布时间 分类 资源名称 大小 种子 下载 完成 发布者/联盟
08/10 21:50 MKV电影 [分歧者:异类觉醒]Divergent.2014.720p.BluRay.x264.AC3-CNXP[中英字幕/3G] 3.0GB 0 0 0 影视帝国
08/10 21:42 MKV电影 [天才眼镜狗]2014.720p.BluRay.x264.AC3-CNXP[国英粤台四语/中英字幕/2.7G] 2.7GB 0 0 2 影视帝国
08/10 21:39 MKV电影 [我的邻居山田君]1999.720p.BluRay.x264.AC3-CNXP[国日英三语/中文字幕/2.7G] 2.7GB 0 0 0 影视帝国
08/10 21:30 MKV电影 [萤火虫之墓]1988.720p.BluRay.x264.AC3-CNXP[国日粤三语/中文字幕/2.3G] 2.3GB 0 0 1 影视帝国
08/10 20:38 MKV电影 极地大冒险.Niko-Lentajan.poika.2008.双语字幕.HR-HDTV.AC3.1024X550.x264-人人影视网原创 1.2GB 0 0 1 人人影视
08/10 20:34 MKV电影 华沙谍战.Jack.Strong.2014.双语字幕.HR-HDTV.AC3.1024X576.x264-人人影视网原创 1.9GB 0 0 14 人人影视
08/10 20:28 MKV电影 奥勃洛莫夫一生中的几天.1979.中文字幕.HR-HDTV.AC3.804x576.x264-人人影视网原创 2.2GB 0 0 1 人人影视
08/10 20:14 MKV电影 地球战场.Battlefield.Earth.2000.双语字幕.HR-HDTV.AC3.1024X576.x264-人人影视网原创 1.8GB 0 0 1 人人影视
08/10 20:06 MKV电影 雌雄大盗.Bonnie.and.Clyde.双语字幕.国英音轨.HR-HDTV.AC3.1024X576.x264-人人影视网原创 1.7GB 0 0 1 人人影视
08/10 19:54 MKV电影 移民.The.Immigrant.2013.中文字幕.HR-HDTV.AC3.1024X576.x264-人人影视网原创 1.8GB 0 0 0 人人影视
08/10 16:12 720P高清 [神秘博士:时空大冒险] Doctor.Who.An.Adventure.in.Space.and.Time.2013.720p.BluRay.x264 4.37G 4.4GB 0 0 1 badboy
08/10 16:09 1080P [神秘博士:时空大冒险] Doctor.Who.An.Adventure.in.Space.and.Time.2013.1080p.BluRay.x264 8.74G 8.9GB 0 0 0 badboy
08/10 15:59 720P高清 [博士之时] Doctor.Who.The.Time.of.the.Doctor.2013.720p.BluRay.x264 3.28G 3.3GB 0 0 0 badboy
08/10 15:54 1080P [博士之时] Doctor.Who.The.Time.of.the.Doctor.2013.1080p.BluRay.x264 6.56G 6.6GB 0 0 1 badboy
08/10 15:01 1080P [神秘博士1-4季]Doctor.Who.(2005).Season.1-4.BluRay.1080P-ShortbreHD 176.04G 176.0GB 0 0 1 badboy
08/10 14:30 1080P [神秘博士第七季] Doctor.Who.2005.S07.1080p.BluRay.x264 42.62G 42.6GB 0 0 0 badboy
08/10 13:14 720P高清 [神秘博士第七季] Doctor.Who.2005.S07.Season.7.720p.BluRay.x264-PublicHD 28.42G 28.4GB 0 0 0 badboy
08/10 11:23 720P高清 [神秘博士第六季] Doctor.Who.2005.S06.720p.BluRay.x264-SHORTBREHD 28.42G 28.4GB 0 0 2 badboy
08/10 11:12 720P高清 [神秘博士第五季] Doctor.Who.2005.S05.720p.HDTV.x264-HD 29.14G 29.1GB 0 0 0 badboy
08/10 10:56 720P高清 [神秘博士第四季] Doctor.Who.2005.S04.Season.4.720p.BluRay.x264-SHORTBREHD 28.84G 28.8GB 0 0 0 badboy
08/10 10:51 720P高清 [神秘博士第三季] Doctor.Who.2005.S03.Season.3.720p.BluRay.x264-SHORTBREHD 28.38G 28.4GB 0 0 0 badboy
08/10 10:40 720P高清 [神秘博士第二季] Doctor.Who.2005.S02.Season.2.720p.BluRay.x264-SHORTBREHD 28.38G 28.4GB 0 0 0 badboy
08/10 10:15 720P高清 [神秘博士第一季] Doctor.Who.2005.S01.Season.1.720p.BluRay.x264-SHORTBREHD 28.38G 28.4GB 0 0 0 badboy
08/10 09:44 720P高清 [神秘博士:死亡星球].Doctor.Who.Planet.Of.The.Dead.2009.720p.Bluray.x264 2.65G 2.7GB 0 0 0 badboy
08/10 09:35 RMVB电影 [2012][BBC][科幻][神秘博士2012圣诞特别篇:雪人][HD-RMVB/623.5M][中英双字][720P] 623.5MB 0 0 2 badboy
08/10 09:23 RMVB电影 [2013][BBC][科幻][博士之日/神秘博士50周年特别篇][BD-RMVB/956.7M][中英双字][720P] 956.7MB 0 0 2 badboy
08/10 08:41 最新电影 [2014][美国][科幻/动画][钢铁侠与美国队长:英雄集结][BD-RMVB/888.3M][中字] 888.3MB 0 0 2975 badboy
08/10 00:54 RMVB电影 [2000][美澳][科幻/冒险][星际传奇][BD-RMVB/1.34G][中英字幕][480/720P双版] 2.1GB 0 0 0 影视帝国
08/10 00:44 RMVB电影 [2013][美英澳][喜剧/传记][大梦想家][BD-RMVB/1.5G][中英字幕][480/720P双版] 2.3GB 0 0 0 影视帝国
08/10 00:37 RMVB电影 [2013][美国][传记/历史][续命枭雄][BD-RMVB/1.39G][中英字幕][480/720P双版] 2.1GB 0 0 0 影视帝国
08/10 00:20 RMVB电影 [2004][美意卢英][剧情][威尼斯商人][BD-RMVB/1.58G][中英字幕][480/720P双版] 2.4GB 0 0 0 影视帝国
08/09 23:17 最新电影 [英国][双重人格][BD-RMVB.720p.中英双字][2013年惊悚] 1.0GB 0 0 5 BT无忧无虑
08/09 23:14 最新电影 [美国][蝙蝠侠:突袭阿卡姆][BD-RMVB.720p.中英双字][2014年科幻动画] 845.9MB 0 0 12 BT无忧无虑
08/09 23:06 MKV电影 罗塞塔.Rosetta.1999.中文字幕.HR-HDTV.AC3.956x576.x264-人人影视网原创 1.4GB 0 0 0 人人影视
08/09 23:01 MKV电影 温布尔登.Wimbledon.2004.双语字幕.HR-HDTV.AC3.1024X576.x264-人人影视网原创 1.5GB 0 0 2 人人影视
08/09 22:53 MKV电影 佳人蓓尔.Belle.2013.双语字幕.HR-HDTV.AC3.1024X576.x264-人人影视网原创 1.6GB 0 0 2 人人影视
08/09 22:20 MKV电影 最小的天使.The.Littlest.Angel.2011.双语字幕.HR-HDTV.AC3.1024X576.x264-人人影视网原创 1.3GB 0 0 5 人人影视
08/09 22:10 MKV电影 红一纵队.The.Big.Red.One.1980.双语字幕.HR-HDTV.AC3.1024X576.x264-人人影视网原创 1.7GB 0 0 2 人人影视
08/09 15:27 MKV电影 锅盖头2.Jarhead.2.Field.of.Fire.2014.双语字幕.HR-HDTV.AC3.1024X576.x264-人人影视网原创 1.6GB 0 0 7 人人影视
08/09 14:49 MKV电影 锅盖头.Jarhead.2005.双语字幕.国英音轨.HR-HDTV.AC3.1024X576.x264-人人影视网原创 2.2GB 0 0 1 人人影视
08/09 14:46 MKV电影 判我有罪.Find.Me.Guilty.2006.双语字幕.HR-HDTV.AC3.1024X576.x264-人人影视网原创 1.9GB 0 0 2 人人影视
08/09 14:42 MKV电影 戴安娜.Diana.2013.双语字幕.HR-HDTV.AC3.1024X554.x264-人人影视网原创 1.7GB 0 0 5 人人影视
08/09 14:39 MKV电影 拉拉队员都死了.All.Cheerleaders.Die.双语字幕.HR-HDTV.AC3.1024X576.x264-人人影视网原创 1.4GB 0 0 4 人人影视
08/09 11:32 高清连续剧 [国产][产科医生][国语中字][DVD-MP4][42集全] 16.4GB 0 0 18 z198711211
08/09 11:31 高清连续剧 [国产][神医大道公前传][国语中字][DVD-MP4][35集全] 9.2GB 0 0 25 z198711211
08/09 10:30 RMVB电影 [2014][美国][动作/科幻][美国队长2:冬日战士][BD-RMVB/1.34G][中英字幕][720P] 1.3GB 0 0 808 badboy
08/09 09:47 MKV电影 [大汉风之运筹帷幄].T.S.O.H.D.A.Z.L.2005.HDTV.720p.x264.AC3-CMCT[国语中字/2.6G] 2.6GB 0 0 1 CMCT高清
08/09 09:45 MKV电影 [大力士].Hercules.1997.BluRay.720p.x264.AC3.2Audios-CMCT[国英双语/中英双字/3G] 3.0GB 0 0 0 CMCT高清
08/09 09:18 MKV电影 [伊甸园之东].East.of.Eden.1955.BluRay.720p.x264.AC3-CMCT[中英双字/3.2G] 3.2GB 0 0 0 CMCT高清
08/09 09:17 MKV电影 [凶恶].The.Devil's.Path.2013.BluRay.720p.x264.AC3-CMCT[日语中字/4G] 4.0GB 0 0 0 CMCT高清
08/09 09:15 MKV电影 [人类资金].The.Human.Trust.2013.BluRay.720p.x264.AC3-CMCT[日语中字/4.4G] 4.4GB 0 0 0 CMCT高清
08/09 09:11 MKV电影 [急速天劫/直航杀机].Non.Stop.2014.BluRay.720p.x264.AC3-CnSCG[中英字幕/2.8G] 2.8GB 0 0 0 CMCT高清
08/09 09:09 MKV电影 [孤独的生还者].Lone.Survivor.2013.BluRay.720p.x264.AC3-CnSCG[中英字幕/3.2G] 3.2GB 0 0 9 CMCT高清
08/09 09:07 MKV电影 [无因的反抗].Rebel.Without.A.Cause.1955.BluRay.720p.x264.AC3-CMCT[中英双字/3G] 3.0GB 0 0 0 CMCT高清
08/09 09:06 MKV电影 [无尽的爱].Endless.Love.2014.BluRay.720p.x264.AC3-CMCT[中英双字/3G] 3.0GB 0 0 0 CMCT高清
08/09 09:05 MKV电影 [昆塔·盒子总动员].Kunta.2013.HDTV.720p.x264.AC3-CMCT[国语中字/2.05G] 2.1GB 0 0 0 CMCT高清
08/09 09:03 MKV电影 [末世殖民地].The.Colony.2013.BluRay.720p.x264.AC3-CMCT[中英双字/2.6G] 2.6GB 0 0 1 CMCT高清
08/09 09:02 MKV电影 [机械战警].RoboCop.2014.HK.BluRay.720p.x264.AC3.2Audio-CMCT[中英双字/3.8G] 3.8GB 0 0 2 CMCT高清
08/09 09:00 MKV电影 [极度深寒].Deep.Rising.1998.BluRay.720p.x264.AC3.2Audios-CMCT[中英双字/3.96G] 3.9GB 0 0 0 CMCT高清
08/09 08:59 MKV电影 [玛德2号].Saving.Mother.Robot.2013.BluRay.720p.x264.AC3-CMCT[国语中字/2.6G] 2.6GB 0 0 0 CMCT高清
08/09 08:56 MKV电影 [碧海蓝天].1988.BluRay.720p.x264.AC3.2Audios-CMCT[国法双语/中文字幕/5.19G] 5.2GB 0 0 1 CMCT高清
08/09 08:54 MKV电影 [神医].The.Physician.2013.BluRay.720p.x264.AC3-CMCT[中英双字/4.17G] 4.2GB 0 0 0 CMCT高清
08/09 08:51 MKV电影 [花容月貌].Jeune.&.Jolie.2013.BluRay.720p.x264.AC3-CMCT[法语中字/2.6G] 2.6GB 0 0 0 CMCT高清
08/09 00:27 RMVB电影 [2014][美国][动作/科幻][超凡蜘蛛侠2][BD-RMVB/1.88G][中英字幕][480/720P双版] 2.9GB 0 0 4 影视帝国
08/09 00:13 RMVB电影 [2013][美国][冒险/剧情][内布拉斯加][BD-RMVB/1.35G][中英字幕][480/720P双版] 2.1GB 0 0 0 影视帝国
08/09 00:04 RMVB电影 [2013][英美法][剧情][菲洛梅娜][BD-RMVB/1.17G][中英字幕][480/720P双版] 1.8GB 0 0 0 影视帝国
08/08 22:21 最新电影 [美国][锅盖头2:战火之地][BD-RMVB.720p.中英双字][2014年战争动作] 1.2GB 0 0 15 BT无忧无虑
08/08 22:17 经典电影 [泰国][30正美丽/盛女30][BD-RMVB.720p.中字][2011年喜剧] 1.3GB 0 0 1 BT无忧无虑
08/08 16:23 MKV电影 另一个故乡.Die.andere.Heimat.中德双语字幕.HR-HDTV.AC3.1024X576.x264-人人影视网原创 3.5GB 0 0 118 人人影视
08/08 16:10 MKV电影 告密者.The.Whistleblower.2011.双语字幕.HR-HDTV.AC3.1024X576.x264-人人影视网原创 1.7GB 0 0 1 人人影视
08/08 15:50 MKV电影 玩具总动员之惊魂夜.Toy.Story.of.Terror.双语字幕.HR-HDTV.AC3.1024X576.x264-人人影视网原创 337.5MB 0 0 11 人人影视
08/08 15:43 MKV电影 从拉莱米来的人.The.Man.from.Laramie.双语字幕.HR-HDTV.AC3.1024X576.x264-人人影视网原创 1.6GB 0 0 0 人人影视
08/08 15:26 最新电影 [欧美][战争][锅盖头2/锅盖头2:战火之地][BD-RMVB/2G][英语中字][2014最新战争大片720P] [讨论] 2.0GB 0 0 0 飘域家园
08/08 14:08 MKV电影 [鲁邦三世:卡里奥斯特罗之城]1979.720p.BluRay.x264.AC3-CNXP[日语中字/2.1G] 2.1GB 0 0 0 影视帝国
08/08 14:04 MKV电影 [极品飞车]Need.for.Speed.2014.720p.BluRay.x264.AC3-CNXP[国英双语/中英字幕/3.2G] 3.2GB 0 0 0 影视帝国
08/08 13:55 MKV电影 [香港仔]Aberdeen.2014.720p.BluRay.x264.AC3-CNXP[国粤双语/中文字幕/2.3G] 2.3GB 0 0 1 影视帝国
08/08 13:50 MKV电影 [里约大冒险2].Rio.2.2014.720p.BluRay.x264.AC3-CNXP[国英粤台四语/中英字幕/3.09G] 3.1GB 0 0 3 影视帝国
08/08 13:44 MKV电影 [起风了]The.Wind.Rises.2013.720p.BluRay.x264.AC3-CNXP[国粤日/中文字幕/2.99G] 3.0GB 0 0 2 影视帝国
08/08 13:40 MKV电影 [来自虞美人之坡]2011.720p.BluRay.x264.AC3-CNXP[国粤日三语/中文字幕/2.59G] 2.6GB 0 0 1 影视帝国
08/08 13:37 MKV电影 [借东西的小人阿莉埃蒂]2010.720p.BluRay.x264.AC3-CNXP[国粤日/中文字幕/2.59G] 2.6GB 0 0 0 影视帝国